Year,Month,Day,Hour,Minute,Value (Times are PST for temperature in C)
2014,06,25,00,00,16.60
2014,06,25,00,01,16.60
2014,06,25,00,02,16.60
2014,06,25,00,03,16.60
2014,06,25,00,04,16.60
2014,06,25,00,05,16.60
2014,06,25,00,06,16.60
2014,06,25,00,07,16.50
2014,06,25,00,08,16.60
2014,06,25,00,09,16.50
2014,06,25,00,10,16.50
2014,06,25,00,11,16.50
2014,06,25,00,12,16.50
2014,06,25,00,13,16.50
2014,06,25,00,14,16.40
2014,06,25,00,15,16.40
2014,06,25,00,16,16.40
2014,06,25,00,17,16.40
2014,06,25,00,18,16.40
2014,06,25,00,19,16.40
2014,06,25,00,20,16.40
2014,06,25,00,21,16.30
2014,06,25,00,22,16.30
2014,06,25,00,23,16.30
2014,06,25,00,24,16.30
2014,06,25,00,25,16.30
2014,06,25,00,26,16.30
2014,06,25,00,27,16.20
2014,06,25,00,28,16.20
2014,06,25,00,30,16.20
2014,06,25,00,31,16.20
2014,06,25,00,32,16.20
2014,06,25,00,33,16.10
2014,06,25,00,34,16.10
2014,06,25,00,35,16.10
2014,06,25,00,36,16.10
2014,06,25,00,37,16.10
2014,06,25,00,38,16.10
2014,06,25,00,39,16.10
2014,06,25,00,40,16.10
2014,06,25,00,41,16.00
2014,06,25,00,42,16.00
2014,06,25,00,43,16.00
2014,06,25,00,44,16.00
2014,06,25,00,45,16.00
2014,06,25,00,46,16.00
2014,06,25,00,47,16.00
2014,06,25,00,48,16.00
2014,06,25,00,49,16.00
2014,06,25,00,50,16.00
2014,06,25,00,51,16.00
2014,06,25,00,52,16.00
2014,06,25,00,53,16.00
2014,06,25,00,54,16.00
2014,06,25,00,55,16.00
2014,06,25,00,56,16.00
2014,06,25,00,57,16.00
2014,06,25,00,58,16.00
2014,06,25,01,00,16.00
2014,06,25,01,01,16.00
2014,06,25,01,02,16.00
2014,06,25,01,04,16.00
2014,06,25,01,05,15.90
2014,06,25,01,06,15.90
2014,06,25,01,07,15.90
2014,06,25,01,08,15.90
2014,06,25,01,09,15.90
2014,06,25,01,10,15.90
2014,06,25,01,11,15.90
2014,06,25,01,12,15.90
2014,06,25,01,13,15.90
2014,06,25,01,14,15.90
2014,06,25,01,15,15.90
2014,06,25,01,16,15.90
2014,06,25,01,17,15.90
2014,06,25,01,18,15.90
2014,06,25,01,19,15.90
2014,06,25,01,20,15.90
2014,06,25,01,21,15.90
2014,06,25,01,22,15.90
2014,06,25,01,23,15.90
2014,06,25,01,24,15.90
2014,06,25,01,25,15.90
2014,06,25,01,26,15.90
2014,06,25,01,27,15.90
2014,06,25,01,29,15.90
2014,06,25,01,31,15.90
2014,06,25,01,32,15.90
2014,06,25,01,33,15.90
2014,06,25,01,34,15.90
2014,06,25,01,35,15.90
2014,06,25,01,36,15.90
2014,06,25,01,37,15.90
2014,06,25,01,38,15.90
2014,06,25,01,39,15.80
2014,06,25,01,40,15.90
2014,06,25,01,41,15.80
2014,06,25,01,42,15.80
2014,06,25,01,43,15.80
2014,06,25,01,44,15.80
2014,06,25,01,45,15.80
2014,06,25,01,46,15.80
2014,06,25,01,49,15.80
2014,06,25,01,50,15.80
2014,06,25,01,53,15.80
2014,06,25,01,59,15.80
2014,06,25,02,00,15.80
2014,06,25,02,01,15.80
2014,06,25,02,02,15.80
2014,06,25,02,04,15.80
2014,06,25,02,05,15.80
2014,06,25,02,06,15.80
2014,06,25,02,07,15.80
2014,06,25,02,08,15.80
2014,06,25,02,09,15.80
2014,06,25,02,12,15.80
2014,06,25,02,13,15.80
2014,06,25,02,14,15.80
2014,06,25,02,15,15.80
2014,06,25,02,16,15.80
2014,06,25,02,17,15.80
2014,06,25,02,18,15.80
2014,06,25,02,19,15.80
2014,06,25,02,20,15.80
2014,06,25,02,21,15.80
2014,06,25,02,22,15.80
2014,06,25,02,23,15.80
2014,06,25,02,24,15.80
2014,06,25,02,25,15.80
2014,06,25,02,26,15.80
2014,06,25,02,27,15.80
2014,06,25,02,28,15.80
2014,06,25,02,29,15.80
2014,06,25,02,30,15.80
2014,06,25,02,31,15.80
2014,06,25,02,32,15.80
2014,06,25,02,33,15.70
2014,06,25,02,34,15.70
2014,06,25,02,35,15.70
2014,06,25,02,36,15.70
2014,06,25,02,37,15.70
2014,06,25,02,38,15.70
2014,06,25,02,39,15.70
2014,06,25,02,40,15.70
2014,06,25,02,41,15.70
2014,06,25,02,42,15.70
2014,06,25,02,43,15.60
2014,06,25,02,44,15.60
2014,06,25,02,45,15.60
2014,06,25,02,46,15.60
2014,06,25,02,47,15.60
2014,06,25,02,48,15.60
2014,06,25,02,49,15.60
2014,06,25,02,50,15.60
2014,06,25,02,51,15.60
2014,06,25,02,52,15.60
2014,06,25,02,53,15.60
2014,06,25,02,54,15.50
2014,06,25,02,55,15.50
2014,06,25,02,56,15.50
2014,06,25,02,57,15.50
2014,06,25,02,58,15.50
2014,06,25,02,59,15.40
2014,06,25,03,00,15.40
2014,06,25,03,01,15.40
2014,06,25,03,02,15.40
2014,06,25,03,04,15.40
2014,06,25,03,05,15.40
2014,06,25,03,06,15.30
2014,06,25,03,07,15.30
2014,06,25,03,08,15.30
2014,06,25,03,09,15.30
2014,06,25,03,10,15.30
2014,06,25,03,11,15.30
2014,06,25,03,12,15.30
2014,06,25,03,13,15.20
2014,06,25,03,14,15.20
2014,06,25,03,15,15.20
2014,06,25,03,16,15.20
2014,06,25,03,17,15.20
2014,06,25,03,18,15.10
2014,06,25,03,19,15.10
2014,06,25,03,20,15.10
2014,06,25,03,21,15.10
2014,06,25,03,22,15.10
2014,06,25,03,23,15.00
2014,06,25,03,24,15.00
2014,06,25,03,25,15.00
2014,06,25,03,26,15.00
2014,06,25,03,27,14.90
2014,06,25,03,28,14.90
2014,06,25,03,29,14.90
2014,06,25,03,30,14.90
2014,06,25,03,31,14.90
2014,06,25,03,32,14.90
2014,06,25,03,33,14.90
2014,06,25,03,34,14.80
2014,06,25,03,35,14.80
2014,06,25,03,36,14.80
2014,06,25,03,37,14.80
2014,06,25,03,38,14.80
2014,06,25,03,39,14.80
2014,06,25,03,40,14.80
2014,06,25,03,41,14.80
2014,06,25,03,42,14.70
2014,06,25,03,43,14.70
2014,06,25,03,44,14.70
2014,06,25,03,45,14.70
2014,06,25,03,46,14.70
2014,06,25,03,47,14.70
2014,06,25,03,48,14.70
2014,06,25,03,49,14.60
2014,06,25,03,50,14.60
2014,06,25,03,51,14.60
2014,06,25,03,52,14.60
2014,06,25,03,53,14.60
2014,06,25,03,54,14.60
2014,06,25,03,55,14.50
2014,06,25,03,56,14.50
2014,06,25,03,57,14.50
2014,06,25,03,58,14.40
2014,06,25,03,59,14.40
2014,06,25,04,00,14.40
2014,06,25,04,01,14.40
2014,06,25,04,02,14.40
2014,06,25,04,04,14.40
2014,06,25,04,05,14.40
2014,06,25,04,06,14.40
2014,06,25,04,07,14.40
2014,06,25,04,08,14.40
2014,06,25,04,09,14.40
2014,06,25,04,10,14.40
2014,06,25,04,11,14.40
2014,06,25,04,12,14.40
2014,06,25,04,13,14.40
2014,06,25,04,14,14.40
2014,06,25,04,15,14.40
2014,06,25,04,16,14.40
2014,06,25,04,17,14.40
2014,06,25,04,18,14.40
2014,06,25,04,19,14.40
2014,06,25,04,20,14.40
2014,06,25,04,21,14.30
2014,06,25,04,22,14.30
2014,06,25,04,23,14.30
2014,06,25,04,24,14.30
2014,06,25,04,25,14.30
2014,06,25,04,26,14.30
2014,06,25,04,27,14.30
2014,06,25,04,28,14.30
2014,06,25,04,29,14.30
2014,06,25,04,30,14.20
2014,06,25,04,31,14.20
2014,06,25,04,32,14.20
2014,06,25,04,33,14.20
2014,06,25,04,34,14.20
2014,06,25,04,35,14.20
2014,06,25,04,36,14.20
2014,06,25,04,37,14.20
2014,06,25,04,38,14.10
2014,06,25,04,39,14.10
2014,06,25,04,40,14.10
2014,06,25,04,41,14.10
2014,06,25,04,42,14.10
2014,06,25,04,43,14.10
2014,06,25,04,44,14.00
2014,06,25,04,45,14.00
2014,06,25,04,46,14.00
2014,06,25,04,47,13.90
2014,06,25,04,48,13.90
2014,06,25,04,49,13.90
2014,06,25,04,50,13.90
2014,06,25,04,51,13.90
2014,06,25,04,52,13.90
2014,06,25,04,53,13.80
2014,06,25,04,54,13.80
2014,06,25,04,55,13.80
2014,06,25,04,56,13.80
2014,06,25,04,57,13.80
2014,06,25,04,58,13.80
2014,06,25,04,59,13.70
2014,06,25,05,00,13.70
2014,06,25,05,01,13.70
2014,06,25,05,03,13.70
2014,06,25,05,04,13.70
2014,06,25,05,05,13.70
2014,06,25,05,06,13.70
2014,06,25,05,07,13.70
2014,06,25,05,08,13.60
2014,06,25,05,09,13.60
2014,06,25,05,10,13.60
2014,06,25,05,11,13.60
2014,06,25,05,12,13.60
2014,06,25,05,13,13.60
2014,06,25,05,14,13.60
2014,06,25,05,15,13.60
2014,06,25,05,16,13.50
2014,06,25,05,17,13.50
2014,06,25,05,18,13.50
2014,06,25,05,19,13.50
2014,06,25,05,20,13.50
2014,06,25,05,21,13.50
2014,06,25,05,22,13.40
2014,06,25,05,23,13.40
2014,06,25,05,24,13.40
2014,06,25,05,25,13.40
2014,06,25,05,26,13.40
2014,06,25,05,27,13.40
2014,06,25,05,28,13.40
2014,06,25,05,29,13.40
2014,06,25,05,30,13.40
2014,06,25,05,31,13.40
2014,06,25,05,32,13.40
2014,06,25,05,33,13.30
2014,06,25,05,34,13.30
2014,06,25,05,35,13.30
2014,06,25,05,36,13.30
2014,06,25,05,37,13.30
2014,06,25,05,38,13.30
2014,06,25,05,39,13.30
2014,06,25,05,40,13.30
2014,06,25,05,41,13.30
2014,06,25,05,42,13.30
2014,06,25,05,43,13.30
2014,06,25,05,44,13.30
2014,06,25,05,45,13.20
2014,06,25,05,46,13.20
2014,06,25,05,47,13.20
2014,06,25,05,48,13.20
2014,06,25,05,49,13.20
2014,06,25,05,50,13.20
2014,06,25,05,51,13.20
2014,06,25,05,52,13.20
2014,06,25,05,53,13.20
2014,06,25,05,54,13.20
2014,06,25,05,55,13.20
2014,06,25,05,56,13.30
2014,06,25,05,57,13.20
2014,06,25,05,58,13.30
2014,06,25,05,59,13.30
2014,06,25,06,00,13.30
2014,06,25,06,01,13.30
2014,06,25,06,02,13.30
2014,06,25,06,04,13.30
2014,06,25,06,05,13.30
2014,06,25,06,06,13.40
2014,06,25,06,07,13.40
2014,06,25,06,08,13.40
2014,06,25,06,09,13.40
2014,06,25,06,10,13.40
2014,06,25,06,11,13.50
2014,06,25,06,12,13.60
2014,06,25,06,13,13.60
2014,06,25,06,14,13.60
2014,06,25,06,15,13.60
2014,06,25,06,16,13.70
2014,06,25,06,17,13.70
2014,06,25,06,18,13.70
2014,06,25,06,19,13.70
2014,06,25,06,20,13.80
2014,06,25,06,21,13.80
2014,06,25,06,22,13.90
2014,06,25,06,23,13.90
2014,06,25,06,24,13.90
2014,06,25,06,25,13.90
2014,06,25,06,26,14.00
2014,06,25,06,27,14.10
2014,06,25,06,28,14.10
2014,06,25,06,29,14.10
2014,06,25,06,30,14.20
2014,06,25,06,31,14.20
2014,06,25,06,32,14.20
2014,06,25,06,33,14.20
2014,06,25,06,34,14.30
2014,06,25,06,35,14.30
2014,06,25,06,36,14.30
2014,06,25,06,37,14.40
2014,06,25,06,38,14.40
2014,06,25,06,39,14.50
2014,06,25,06,40,14.60
2014,06,25,06,41,14.60
2014,06,25,06,42,14.70
2014,06,25,06,43,14.80
2014,06,25,06,44,14.80
2014,06,25,06,45,14.90
2014,06,25,06,46,14.90
2014,06,25,06,47,14.90
2014,06,25,06,48,14.90
2014,06,25,06,49,15.00
2014,06,25,06,50,15.00
2014,06,25,06,51,15.10
2014,06,25,06,52,15.10
2014,06,25,06,53,15.10
2014,06,25,06,54,15.10
2014,06,25,06,55,15.10
2014,06,25,06,56,15.10
2014,06,25,06,57,15.10
2014,06,25,06,58,15.10
2014,06,25,06,59,15.20
2014,06,25,07,00,15.20
2014,06,25,07,01,15.20
2014,06,25,07,02,15.20
2014,06,25,07,04,15.20
2014,06,25,07,05,15.20
2014,06,25,07,06,15.20
2014,06,25,07,07,15.20
2014,06,25,07,08,15.20
2014,06,25,07,09,15.20
2014,06,25,07,10,15.20
2014,06,25,07,11,15.20
2014,06,25,07,12,15.20
2014,06,25,07,13,15.20
2014,06,25,07,14,15.20
2014,06,25,07,15,15.20
2014,06,25,07,16,15.20
2014,06,25,07,17,15.20
2014,06,25,07,18,15.20
2014,06,25,07,19,15.20
2014,06,25,07,20,15.20
2014,06,25,07,21,15.20
2014,06,25,07,22,15.30
2014,06,25,07,23,15.30
2014,06,25,07,24,15.30
2014,06,25,07,25,15.30
2014,06,25,07,26,15.30
2014,06,25,07,27,15.30
2014,06,25,07,28,15.40
2014,06,25,07,29,15.40
2014,06,25,07,30,15.40
2014,06,25,07,31,15.50
2014,06,25,07,32,15.60
2014,06,25,07,33,15.60
2014,06,25,07,34,15.70
2014,06,25,07,35,15.70
2014,06,25,07,36,15.80
2014,06,25,07,37,15.90
2014,06,25,07,38,15.90
2014,06,25,07,39,16.10
2014,06,25,07,40,16.20
2014,06,25,07,41,16.30
2014,06,25,07,42,16.30
2014,06,25,07,43,16.40
2014,06,25,07,44,16.50
2014,06,25,07,45,16.50
2014,06,25,07,46,16.60
2014,06,25,07,47,16.70
2014,06,25,07,48,16.70
2014,06,25,07,49,16.80
2014,06,25,07,50,16.80
2014,06,25,07,51,16.90
2014,06,25,07,52,17.10
2014,06,25,07,53,17.10
2014,06,25,07,54,17.20
2014,06,25,07,55,17.30
2014,06,25,07,56,17.30
2014,06,25,07,57,17.40
2014,06,25,07,58,17.40
2014,06,25,07,59,17.50
2014,06,25,08,00,17.60
2014,06,25,08,01,17.60
2014,06,25,08,02,17.70
2014,06,25,08,04,17.70
2014,06,25,08,05,17.80
2014,06,25,08,06,17.80
2014,06,25,08,07,17.90
2014,06,25,08,08,17.90
2014,06,25,08,09,18.00
2014,06,25,08,10,18.10
2014,06,25,08,11,18.10
2014,06,25,08,12,18.10
2014,06,25,08,13,18.20
2014,06,25,08,14,18.20
2014,06,25,08,15,18.30
2014,06,25,08,16,18.30
2014,06,25,08,17,18.30
2014,06,25,08,18,18.30
2014,06,25,08,19,18.30
2014,06,25,08,20,18.30
2014,06,25,08,21,18.30
2014,06,25,08,22,18.30
2014,06,25,08,23,18.40
2014,06,25,08,24,18.40
2014,06,25,08,25,18.50
2014,06,25,08,26,18.60
2014,06,25,08,27,18.70
2014,06,25,08,28,18.70
2014,06,25,08,29,18.60
2014,06,25,08,30,18.60
2014,06,25,08,31,18.60
2014,06,25,08,32,18.60
2014,06,25,08,33,18.60
2014,06,25,08,34,18.70
2014,06,25,08,35,18.70
2014,06,25,08,36,18.70
2014,06,25,08,37,18.70
2014,06,25,08,38,18.70
2014,06,25,08,39,18.70
2014,06,25,08,40,18.70
2014,06,25,08,41,18.70
2014,06,25,08,42,18.70
2014,06,25,08,43,18.70
2014,06,25,08,44,18.60
2014,06,25,08,45,18.60
2014,06,25,08,46,18.60
2014,06,25,08,47,18.60
2014,06,25,08,48,18.70
2014,06,25,08,49,18.70
2014,06,25,08,50,18.80
2014,06,25,08,51,18.80
2014,06,25,08,52,18.80
2014,06,25,08,53,18.90
2014,06,25,08,54,18.90
2014,06,25,08,55,18.90
2014,06,25,08,56,18.80
2014,06,25,08,57,18.80
2014,06,25,08,58,18.80
2014,06,25,08,59,18.80
2014,06,25,09,00,18.80
2014,06,25,09,01,18.80
2014,06,25,09,02,18.80
2014,06,25,09,04,18.90
2014,06,25,09,05,19.00
2014,06,25,09,06,19.10
2014,06,25,09,07,19.10
2014,06,25,09,08,19.20
2014,06,25,09,09,19.30
2014,06,25,09,11,19.40
2014,06,25,09,12,19.50
2014,06,25,09,13,19.60
2014,06,25,09,15,19.70
2014,06,25,09,17,19.70
2014,06,25,09,18,19.80
2014,06,25,09,19,19.80
2014,06,25,09,21,19.80
2014,06,25,09,23,19.90
2014,06,25,09,24,19.90
2014,06,25,09,26,20.10
2014,06,25,09,27,20.10
2014,06,25,09,28,20.20
2014,06,25,09,30,20.30
2014,06,25,09,31,20.30
2014,06,25,09,32,20.30
2014,06,25,09,33,20.30
2014,06,25,09,34,20.20
2014,06,25,09,36,20.10
2014,06,25,09,39,19.90
2014,06,25,09,41,19.90
2014,06,25,09,43,19.80
2014,06,25,09,44,19.70
2014,06,25,09,45,19.70
2014,06,25,09,46,19.70
2014,06,25,09,47,19.60
2014,06,25,09,48,19.60
2014,06,25,09,49,19.60
2014,06,25,09,51,19.60
2014,06,25,09,52,19.60
2014,06,25,09,53,19.60
2014,06,25,09,54,19.60
2014,06,25,09,55,19.70
2014,06,25,09,56,19.70
2014,06,25,09,57,19.70
2014,06,25,09,58,19.70
2014,06,25,09,59,19.70
2014,06,25,10,00,19.70
2014,06,25,10,01,19.70
2014,06,25,10,02,19.80
2014,06,25,10,04,19.90
2014,06,25,10,05,20.00
2014,06,25,10,06,20.10
2014,06,25,10,07,20.20
2014,06,25,10,08,20.30
2014,06,25,10,09,20.30
2014,06,25,10,10,20.40
2014,06,25,10,11,20.50
2014,06,25,10,12,20.60
2014,06,25,10,13,20.60
2014,06,25,10,14,20.60
2014,06,25,10,15,20.70
2014,06,25,10,16,20.70
2014,06,25,10,17,20.80
2014,06,25,10,18,20.80
2014,06,25,10,19,20.80
2014,06,25,10,20,20.90
2014,06,25,10,21,20.90
2014,06,25,10,22,20.90
2014,06,25,10,24,20.90
2014,06,25,10,25,20.90
2014,06,25,10,26,20.90
2014,06,25,10,27,21.00
2014,06,25,10,28,21.10
2014,06,25,10,30,21.10
2014,06,25,10,31,21.20
2014,06,25,10,32,21.20
2014,06,25,10,33,21.20
2014,06,25,10,34,21.20
2014,06,25,10,35,21.30
2014,06,25,10,36,21.30
2014,06,25,10,37,21.40
2014,06,25,10,38,21.50
2014,06,25,10,39,21.60
2014,06,25,10,40,21.70
2014,06,25,10,41,21.80
2014,06,25,10,42,21.80
2014,06,25,10,43,21.80
2014,06,25,10,44,21.90
2014,06,25,10,45,21.90
2014,06,25,10,46,21.90
2014,06,25,10,47,21.90
2014,06,25,10,48,22.00
2014,06,25,10,49,22.10
2014,06,25,10,50,22.10
2014,06,25,10,51,22.20
2014,06,25,10,52,22.20
2014,06,25,10,53,22.30
2014,06,25,10,54,22.40
2014,06,25,10,55,22.40
2014,06,25,10,56,22.40
2014,06,25,10,57,22.50
2014,06,25,10,58,22.60
2014,06,25,10,59,22.60
2014,06,25,11,00,22.70
2014,06,25,11,01,22.80
2014,06,25,11,02,22.80
2014,06,25,11,04,22.70
2014,06,25,11,05,22.60
2014,06,25,11,06,22.40
2014,06,25,11,08,22.30
2014,06,25,11,09,22.30
2014,06,25,11,10,22.30
2014,06,25,11,11,22.30
2014,06,25,11,12,22.30
2014,06,25,11,13,22.40
2014,06,25,11,14,22.40
2014,06,25,11,15,22.40
2014,06,25,11,16,22.40
2014,06,25,11,17,22.40
2014,06,25,11,18,22.40
2014,06,25,11,19,22.40
2014,06,25,11,20,22.30
2014,06,25,11,21,22.30
2014,06,25,11,22,22.20
2014,06,25,11,23,22.10
2014,06,25,11,24,22.10
2014,06,25,11,25,22.10
2014,06,25,11,26,22.10
2014,06,25,11,27,22.10
2014,06,25,11,28,22.10
2014,06,25,11,29,22.20
2014,06,25,11,30,22.20
2014,06,25,11,31,22.20
2014,06,25,11,32,22.30
2014,06,25,11,33,22.30
2014,06,25,11,34,22.40
2014,06,25,11,35,22.60
2014,06,25,11,36,22.60
2014,06,25,11,37,22.70
2014,06,25,11,38,22.70
2014,06,25,11,39,22.80
2014,06,25,11,40,22.90
2014,06,25,11,41,23.00
2014,06,25,11,42,23.10
2014,06,25,11,43,23.10
2014,06,25,11,44,23.10
2014,06,25,11,45,23.20
2014,06,25,11,46,23.10
2014,06,25,11,47,23.10
2014,06,25,11,48,23.10
2014,06,25,11,49,23.00
2014,06,25,11,50,23.00
2014,06,25,11,51,23.00
2014,06,25,11,52,23.10
2014,06,25,11,53,23.20
2014,06,25,11,54,23.30
2014,06,25,11,55,23.40
2014,06,25,11,57,23.60
2014,06,25,11,58,23.70
2014,06,25,11,59,23.80
2014,06,25,12,00,23.80
2014,06,25,12,01,23.80
2014,06,25,12,02,23.90
2014,06,25,12,04,23.90
2014,06,25,12,05,24.00
2014,06,25,12,06,24.10
2014,06,25,12,07,24.20
2014,06,25,12,08,24.30
2014,06,25,12,09,24.30
2014,06,25,12,10,24.40
2014,06,25,12,11,24.40
2014,06,25,12,12,24.40
2014,06,25,12,13,24.40
2014,06,25,12,14,24.40
2014,06,25,12,15,24.40
2014,06,25,12,16,24.40
2014,06,25,12,17,24.40
2014,06,25,12,18,24.40
2014,06,25,12,19,24.40
2014,06,25,12,20,24.40
2014,06,25,12,21,24.50
2014,06,25,12,22,24.60
2014,06,25,12,23,24.60
2014,06,25,12,24,24.50
2014,06,25,12,25,24.50
2014,06,25,12,26,24.50
2014,06,25,12,27,24.60
2014,06,25,12,28,24.50
2014,06,25,12,29,24.50
2014,06,25,12,30,24.40
2014,06,25,12,31,24.40
2014,06,25,12,32,24.40
2014,06,25,12,33,24.30
2014,06,25,12,34,24.20
2014,06,25,12,35,24.20
2014,06,25,12,36,24.10
2014,06,25,12,37,24.20
2014,06,25,12,38,24.20
2014,06,25,12,39,24.30
2014,06,25,12,40,24.30
2014,06,25,12,41,24.40
2014,06,25,12,42,24.40
2014,06,25,12,43,24.40
2014,06,25,12,44,24.30
2014,06,25,12,45,24.40
2014,06,25,12,46,24.40
2014,06,25,12,47,24.50
2014,06,25,12,48,24.60
2014,06,25,12,49,24.60
2014,06,25,12,50,24.60
2014,06,25,12,51,24.70
2014,06,25,12,52,24.70
2014,06,25,12,53,24.70
2014,06,25,12,54,24.70
2014,06,25,12,55,24.60
2014,06,25,12,56,24.60
2014,06,25,12,57,24.60
2014,06,25,12,58,24.70
2014,06,25,12,59,24.80
2014,06,25,13,00,24.90
2014,06,25,13,01,24.90
2014,06,25,13,02,24.90
2014,06,25,13,04,24.80
2014,06,25,13,05,24.70
2014,06,25,13,06,24.60
2014,06,25,13,07,24.60
2014,06,25,13,08,24.70
2014,06,25,13,09,24.70
2014,06,25,13,16,24.90
2014,06,25,15,40,26.40
2014,06,25,15,44,26.40
2014,06,25,15,45,26.40
2014,06,25,15,46,26.40
2014,06,25,15,48,26.40
2014,06,25,15,49,26.60
2014,06,25,16,51,26.40
2014,06,25,16,54,26.30
2014,06,25,16,55,26.40
2014,06,25,16,56,26.40
2014,06,25,16,57,26.40
2014,06,25,16,58,26.40
2014,06,25,16,59,26.40
2014,06,25,17,00,26.40
2014,06,25,17,01,26.40
2014,06,25,17,02,26.40
2014,06,25,17,03,26.40
2014,06,25,17,04,26.40
2014,06,25,17,05,26.40
2014,06,25,17,06,26.40
2014,06,25,17,07,26.40
2014,06,25,17,09,26.40
2014,06,25,17,11,26.40
2014,06,25,17,12,26.40
2014,06,25,17,13,26.30
2014,06,25,17,14,26.30
2014,06,25,17,15,26.30
2014,06,25,17,16,26.20
2014,06,25,17,17,26.20
2014,06,25,17,18,26.20
2014,06,25,17,19,26.30
2014,06,25,17,20,26.30
2014,06,25,17,21,26.40
2014,06,25,17,22,26.40
2014,06,25,17,23,26.60
2014,06,25,17,24,26.60
2014,06,25,17,25,26.60
2014,06,25,17,26,26.60
2014,06,25,17,27,26.60
2014,06,25,17,28,26.60
2014,06,25,17,29,26.60
2014,06,25,17,30,26.60
2014,06,25,17,31,26.60
2014,06,25,17,32,26.60
2014,06,25,17,33,26.60
2014,06,25,17,34,26.60
2014,06,25,17,35,26.60
2014,06,25,17,36,26.60
2014,06,25,17,37,26.60
2014,06,25,17,38,26.60
2014,06,25,17,39,26.60
2014,06,25,17,40,26.60
2014,06,25,17,41,26.60
2014,06,25,17,42,26.60
2014,06,25,17,43,26.60
2014,06,25,17,44,26.60
2014,06,25,17,45,26.60
2014,06,25,17,46,26.60
2014,06,25,17,47,26.60
2014,06,25,17,48,26.60
2014,06,25,17,49,26.50
2014,06,25,17,50,26.50
2014,06,25,17,51,26.50
2014,06,25,17,52,26.50
2014,06,25,17,53,26.40
2014,06,25,17,55,26.40
2014,06,25,17,56,26.40
2014,06,25,17,57,26.40
2014,06,25,17,58,26.40
2014,06,25,17,59,26.40
2014,06,25,18,00,26.40
2014,06,25,18,01,26.50
2014,06,25,18,02,26.50
2014,06,25,18,03,26.50
2014,06,25,18,04,26.50
2014,06,25,18,05,26.40
2014,06,25,18,06,26.40
2014,06,25,18,07,26.40
2014,06,25,18,08,26.40
2014,06,25,18,09,26.30
2014,06,25,18,10,26.40
2014,06,25,18,12,26.30
2014,06,25,18,13,26.30
2014,06,25,18,15,26.30
2014,06,25,18,16,26.30
2014,06,25,18,17,26.20
2014,06,25,18,18,26.20
2014,06,25,18,19,26.20
2014,06,25,18,21,26.10
2014,06,25,18,22,26.10
2014,06,25,18,23,26.10
2014,06,25,18,24,26.00
2014,06,25,18,25,25.90
2014,06,25,18,26,25.90
2014,06,25,18,27,25.90
2014,06,25,18,28,25.90
2014,06,25,18,29,25.90
2014,06,25,18,30,25.90
2014,06,25,18,31,25.80
2014,06,25,18,32,25.80
2014,06,25,18,33,25.80
2014,06,25,18,34,25.80
2014,06,25,18,35,25.80
2014,06,25,18,36,25.80
2014,06,25,18,37,25.90
2014,06,25,18,38,25.90
2014,06,25,18,39,25.90
2014,06,25,18,40,25.90
2014,06,25,18,41,25.90
2014,06,25,18,42,25.90
2014,06,25,18,43,25.90
2014,06,25,18,45,25.80
2014,06,25,18,46,25.80
2014,06,25,18,47,25.80
2014,06,25,18,48,25.80
2014,06,25,18,49,25.80
2014,06,25,18,50,25.70
2014,06,25,18,51,25.70
2014,06,25,18,52,25.70
2014,06,25,18,53,25.70
2014,06,25,18,54,25.70
2014,06,25,18,55,25.70
2014,06,25,18,57,25.70
2014,06,25,18,58,25.70
2014,06,25,18,59,25.70
2014,06,25,19,00,25.70
2014,06,25,19,02,25.70
2014,06,25,19,03,25.70
2014,06,25,19,04,25.70
2014,06,25,19,06,25.80
2014,06,25,19,07,25.80
2014,06,25,19,09,25.80
2014,06,25,19,10,25.80
2014,06,25,19,11,25.80
2014,06,25,19,12,25.80
2014,06,25,19,14,25.90
2014,06,25,19,15,25.90
2014,06,25,19,17,25.80
2014,06,25,19,19,25.80
2014,06,25,19,20,25.80
2014,06,25,19,21,25.70
2014,06,25,19,22,25.80
2014,06,25,19,23,25.80
2014,06,25,19,25,25.80
2014,06,25,19,26,25.80
2014,06,25,19,27,25.80
2014,06,25,19,28,25.80
2014,06,25,19,29,25.80
2014,06,25,19,30,25.80
2014,06,25,19,31,25.80
2014,06,25,19,32,25.80
2014,06,25,19,33,25.70
2014,06,25,19,34,25.70
2014,06,25,19,36,25.60
2014,06,25,19,37,25.60
2014,06,25,19,38,25.60
2014,06,25,19,39,25.50
2014,06,25,19,40,25.40
2014,06,25,19,41,25.40
2014,06,25,19,42,25.30
2014,06,25,19,43,25.20
2014,06,25,19,44,25.10
2014,06,25,19,45,25.00
2014,06,25,19,46,24.90
2014,06,25,19,47,24.80
2014,06,25,19,48,24.80
2014,06,25,19,49,24.70
2014,06,25,19,50,24.70
2014,06,25,19,51,24.60
2014,06,25,19,52,24.50
2014,06,25,19,54,24.40
2014,06,25,19,55,24.40
2014,06,25,19,56,24.40
2014,06,25,19,58,24.30
2014,06,25,19,59,24.30
2014,06,25,20,00,24.20
2014,06,25,20,01,24.20
2014,06,25,20,02,24.10
2014,06,25,20,03,24.00
2014,06,25,20,04,23.90
2014,06,25,20,05,23.90
2014,06,25,20,06,23.80
2014,06,25,20,07,23.80
2014,06,25,20,09,23.70
2014,06,25,20,11,23.70
2014,06,25,20,13,23.70
2014,06,25,20,14,23.70
2014,06,25,20,15,23.70
2014,06,25,20,17,23.60
2014,06,25,20,18,23.60
2014,06,25,20,19,23.50
2014,06,25,20,20,23.40
2014,06,25,20,22,23.30
2014,06,25,20,24,23.30
2014,06,25,20,25,23.20
2014,06,25,20,26,23.20
2014,06,25,20,28,23.10
2014,06,25,20,30,23.00
2014,06,25,20,32,23.00
2014,06,25,20,33,22.90
2014,06,25,20,35,22.90
2014,06,25,20,36,22.90
2014,06,25,20,37,22.80
2014,06,25,20,38,22.80
2014,06,25,20,40,22.70
2014,06,25,20,41,22.70
2014,06,25,20,42,22.70
2014,06,25,20,44,22.70
2014,06,25,20,45,22.70
2014,06,25,20,46,22.70
2014,06,25,20,47,22.70
2014,06,25,20,48,22.70
2014,06,25,20,49,22.70
2014,06,25,20,50,22.60
2014,06,25,20,52,22.50
2014,06,25,20,53,22.50
2014,06,25,20,54,22.40
2014,06,25,20,55,22.40
2014,06,25,20,56,22.40
2014,06,25,20,58,22.30
2014,06,25,20,59,22.30
2014,06,25,21,00,22.30
2014,06,25,21,01,22.30
2014,06,25,21,03,22.20
2014,06,25,21,04,22.20
2014,06,25,21,05,22.20
2014,06,25,21,06,22.10
2014,06,25,21,07,22.10
2014,06,25,21,08,22.10
2014,06,25,21,09,21.90
2014,06,25,21,10,21.90
2014,06,25,21,11,21.80
2014,06,25,21,12,21.80
2014,06,25,21,15,21.60
2014,06,25,21,16,21.50
2014,06,25,21,17,21.50
2014,06,25,21,18,21.40
2014,06,25,21,19,21.40
2014,06,25,21,20,21.30
2014,06,25,21,21,21.30
2014,06,25,21,22,21.20
2014,06,25,21,24,21.10
2014,06,25,21,25,21.10
2014,06,25,21,27,21.00
2014,06,25,21,28,20.90
2014,06,25,21,29,20.90
2014,06,25,21,30,20.90
2014,06,25,21,31,20.80
2014,06,25,21,32,20.80
2014,06,25,21,33,20.80
2014,06,25,21,35,20.70
2014,06,25,21,36,20.60
2014,06,25,21,37,20.60
2014,06,25,21,39,20.40
2014,06,25,21,40,20.40
2014,06,25,21,42,20.30
2014,06,25,21,43,20.30
2014,06,25,21,44,20.20
2014,06,25,21,46,20.10
2014,06,25,21,47,20.10
2014,06,25,21,48,20.10
2014,06,25,21,49,20.00
2014,06,25,21,51,19.90
2014,06,25,21,53,19.80
2014,06,25,21,54,19.80
2014,06,25,21,55,19.80
2014,06,25,21,57,19.70
2014,06,25,21,58,19.70
2014,06,25,21,59,19.60
2014,06,25,22,00,19.60
2014,06,25,22,01,19.60
2014,06,25,22,02,19.50
2014,06,25,22,03,19.40
2014,06,25,22,04,19.40
2014,06,25,22,05,19.40
2014,06,25,22,07,19.30
2014,06,25,22,08,19.30
2014,06,25,22,09,19.20
2014,06,25,22,10,19.20
2014,06,25,22,11,19.20
2014,06,25,22,12,19.10
2014,06,25,22,13,19.10
2014,06,25,22,14,19.10
2014,06,25,22,15,19.10
2014,06,25,22,16,19.00
2014,06,25,22,17,19.00
2014,06,25,22,18,18.90
2014,06,25,22,19,18.90
2014,06,25,22,21,18.90
2014,06,25,22,22,18.90
2014,06,25,22,23,18.80
2014,06,25,22,25,18.80
2014,06,25,22,27,18.80
2014,06,25,22,28,18.70